Tracking 19476 objects as of 17-Jan-2019
HD Live streaming from Space Station
objects crossing your sky now

GORIZONT 30

Track GORIZONT 30 now!
GORIZONT 30 is classified as:


NORAD ID: 23108
Int'l Code: 1994-030A
Perigee: 35,742.3 km
Apogee: 35,791.3 km
Inclination: 14.8 °
Period: 1,434.7 minutes
Semi major axis: 42137 km
RCS: 12.5892 m2 (large)
Launch date: May 20, 1994
Source: Commonwealth of Independent States (former USSR) (CIS)
Launch site: TYURATAM MISSILE AND SPACE COMPLEX (TTMTR)
aabbcc
Your satellite tracking list
Your tracking list is empty




NASA's NSSDC Master Catalog

Two Line Element Set (TLE):
1 23108U 94030A   19016.38987300 -.00000285 +00000-0 +00000-0 0  9991
2 23108 014.8313 010.6011 0005814 279.0966 256.7623 01.00368008090312
Source of the keplerian elements: AFSPC